Weather in Popov Porog

Russia / Republic of Karelia     63°24′29″N   34°00′50″E
temp.,
°C
wind,
m/s
gust,
m/s
humid.,
%
clouds,
%
prec.,
mm/h
press.,
hPa
HPBL,
m
18 august, thu
thu1800:00+19sse39765 0.0 1018174
03:00+19s413739 0.0 1018376
06:00+19ssw41374100 0.0 1018423
09:00+18ssw4893100 1.2 1019232
12:00+23ssw467325 0.4 1021440
15:00+24ssw476113 0.6 1021496
18:00+25ssw365486 0.0 1021757
21:00+21s277088 0.0 1022143
19 august, fri
fri1900:00+18s267868 0.1 1023110
03:00+17s287397 0.1 1023141
06:00+17s27776 0.0 1024140
09:00+23s485919 0.0 1025371
12:00+27s57455 0.0 1025954
15:00+29s58405 0.0 10242076
18:00+27sse584652 0.0 10241010
21:00+23s5125558 0.0 1025495
20 august, sat
sat2000:00+19s3117069 0.0 1025242
03:00+17s3107781 0.0 1026205
06:00+17s397710 0.0 1026228
09:00+21s47605 0.0 1026389
12:00+25s57415 0.0 10261010
15:00+26s572915 0.0 10251386
18:00+23sse58400 0.0 1024846
21:00+18sse413522 0.0 1024355
21 august, sun
sun2100:00+16sse312632 0.0 1024243
03:00+15s387611 0.0 1024168
06:00+16sse3973100 0.0 1023288
09:00+19sse41169100 0.0 1023656
12:00+24s6114117 0.0 10211538
15:00+21s61353100 0.0 10211146
18:00+20sse4106083 0.0 1021566
21:00+19sse513615 0.0 1021476
22 august, mon
mon2200:00+16sse39705 0.0 1020210
03:00+15s310693 0.0 1021268
06:00+14s310700 0.0 1021261
09:00+19s48540 0.0 1021437
12:00+23s58375 0.0 10201053
15:00+26s610329 0.0 10191742
18:00+24s494147 0.0 10191395
21:00+20s512527 0.0 1019431